Вернуться в каталог

STARLINK-37957

АктивенСвязьSSO
NORAD 69685·PAYLOAD·🇺🇸 United States

Запущен Jun 25, 2026 с Vandenberg Space Force Base

Loading…

Ближайшие Пролёты (ближайшие 24 часа)

TLE

СвежийSource: CelesTrak SupGP

Эпоха: Sep 14, 2026, 22:57 UTC

1 69685C 26145J   26257.95673611  .00085362  00000+0  26506-2 0  2573
2 69685  97.2845 104.6849 0001753  96.1349 231.5588 15.33386763    19

Отслеживайте STARLINK-37957 в реальном времени с AllMySat

Download on the App Store